Regional Weather Roundup
Issued by NWS

Home | Current Version | Previous Version | Graphics & Text | Print | Product List | Glossary On
Versions: 1 2 3 4 5 6 7 8 9 10 11 12 13 14 15 16 17 18 19 20 21 22 23 24 25 26 27 28 29 30 31 32 33 34 35 36 37 38 39 40 41 42 43 44 45
000
ASUS43 KDMX 021707
RWRIA

WEATHER ROUNDUP FOR IOWA
NATIONAL WEATHER SERVICE DES MOINES IA
1200 PM CDT THU OCT 02 2014

NOTE: "FAIR" INDICATES FEW OR NO CLOUDS BELOW 12,000 FEET WITH NO
SIGNIFICANT WEATHER AND/OR OBSTRUCTIONS TO VISIBILITY.

* - THESE STATIONS ARE NOT NWS STATIONS...THUS NOT UNDER NWS
QUALITY CONTROL.  THEY ALSO DO NOT REPORT WEATHER SUCH
AS PRECIPITATION OR FOG.

IAZ001>003-012>014-020>022-031>034-043>046-021800-
   NORTHWEST IOWA

CITY           SKY/WX    TMP DP  RH WIND       PRES   REMARKS
CARROLL *      CLOUDY    63  63 100 N10       29.78F FOG
CHEROKEE *     DRIZZLE   55  55 100 N9G17     29.83F
DENISON *      DRIZZLE   57  57 100 NW8       29.79F
LE MARS *      RAIN      55  55 100 N8        29.87S
ORANGE CITY *  HVY RAIN  55  54  94 N9        29.86F
SHELDON *      RAIN      54  54 100 N7        29.85F
SIOUX CITY     RAIN      55  54  96 N14       29.86F FOG
SPENCER        CLOUDY    56  53  90 N13       29.84S
STORM LAKE *   CLOUDY    55  55 100 N12       29.82F
$$

IAZ055>058-069>071-079>083-090>094-021800-
   SOUTHWEST IOWA

CITY           SKY/WX    TMP DP  RH WIND       PRES   REMARKS
ATLANTIC *     LGT RAIN  63  61  94 N14G20    29.78S VSB 3/4
AUDUBON *      DRIZZLE   63  57  82 NW9       29.79S
CLARINDA *     CLOUDY    66  64  94 N6        29.78S
COUNCIL BLFS * RAIN      55  55 100 N13       29.77F
CRESTON *      CLOUDY    64  64 100 CALM      29.77F FOG
HARLAN  *      CLOUDY    59  59 100 NW12      29.83F
LAMONI         LGT RAIN  64  64 100 CALM      29.75F FOG
RED OAK *      CLOUDY    61  61 100 NW14G20   29.77F FOG
SHENANDOAH *   CLOUDY    61  61 100 N9G18     29.78F FOG
$$

IAZ047>049-059>061-072>074-084-021800-
   CENTRAL IOWA

CITY           SKY/WX    TMP DP  RH WIND       PRES   REMARKS
AMES           CLOUDY    63  63 100 SE5       29.76F FOG
ANKENY *       DRIZZLE   64  64 100 CALM      29.75F
CHARITON *     LGT RAIN  64  64 100 SE10      29.74F
DES MOINES     RAIN      66  63  90 CALM      29.75F VSB 3/4
GRINNELL*      CLOUDY    64  63  94 SE7       29.77S FOG
KNOXVILLE *    LGT RAIN  64  63  94 CALM      29.74F
MARSHALLTOWN   CLOUDY    65  62  90 SE5       29.76F
PELLA *        RAIN      66  64  94 SE3       29.77R
PERRY *        FOG       64  64 100 CALM      29.77R VSB 1
$$

IAZ004>006-015-016-023>025-035-036-021800-
   NORTH CENTRAL IOWA

CITY           SKY/WX    TMP DP  RH WIND       PRES   REMARKS
ALGONA *       PTSUNNY   57  57 100 N7        29.81F
CLARION *      PTSUNNY   64  64 100 N7        29.77F
ESTHERVILLE    CLOUDY    55  54  96 N12       29.82F
FORT DODGE *   CLOUDY    63  61  94 N5        29.78F
MASON CITY     LGT RAIN  63  63 100 N5        29.80F FOG
FOREST CITY *  CLOUDY    61  61 100 NW3       29.80F FOG
IOWA FALLS *   DRZL/FOG  64  63  94 E3        29.78F VSB 3/4
$$

IAZ007>011-017>019-026>030-037>042-050>054-066-021800-
   NORTHEAST IOWA

CITY           SKY/WX    TMP DP  RH WIND       PRES   REMARKS
CEDAR RAPIDS   CLOUDY    68  64  88 S7        29.76F
CHARLES CITY * CLOUDY    64  63  94 E5        29.79F FOG
CLINTON *      CLOUDY    70  63  78 S9        29.84S
DECORAH *      CLOUDY    66  61  82 E6        29.79F
DUBUQUE        PTSUNNY   68  64  88 S12       29.79
MONTICELLO *   PTSUNNY   70  64  83 S9        29.78F
OELWEIN *      CLOUDY    68  63  83 SE6       29.77F
WATERLOO       CLOUDY    66  62  87 SE3       29.76F FOG
$$

IAZ064-065-067-068-078-021800-
   EAST CENTRAL IOWA

CITY           SKY/WX    TMP DP  RH WIND       PRES   REMARKS
IOWA CITY      CLOUDY    68  64  87 SE9       29.78F
MT. PLEASANT * CLOUDY    68  64  88 SE10      29.76F
MUSCATINE *    CLOUDY    68  63  83 SE10G21   29.80S
QUAD CITIES    CLOUDY    68  63  84 S8        29.83R
$$

IAZ062-063-075>077-085>089-095>099-021800-
   SOUTHEAST IOWA

CITY           SKY/WX    TMP DP  RH WIND       PRES   REMARKS
BURLINGTON     CLOUDY    66  64  93 S10       29.80S
FAIRFIELD *    DRIZZLE   64  63  94 S8        29.78S
FORT MADISON * CLOUDY    66  66 100 SE9       29.79F
KEOKUK *       SUNNY     66  64  94 SE5       29.76F
OSKALOOSA *    RAIN      64  63  94 SE7       29.77F
CENTERVILLE *  LGT RAIN  64  64 100 SW5       29.77R
OTTUMWA        LGT RAIN  65  63  93 S6        29.76F
WASHINGTON *   CLOUDY    68  66  94 SE8       29.77F
$$

ABBREVIATIONS USED IN REMARKS
   TC - TEMPERATURES IN CELSIUS
  WCI - WIND CHILL INDEX
   HX - HEAT INDEX
  VSB - VISIBILITY
$$



USA.gov is the U.S. government's official web portal to all federal, state and local government web resources and services.